Weather History for San Diego, CA

Change the Weather History Date:

Thursday, November 1, 2012

  Actual Average Record
Temperature  
Mean Temperature 65 °F 64 °F  
Max Temperature 68 °F 71 °F 97 °F (1966)
Min Temperature 61 °F 57 °F 45 °F (1916)
Degree Days  
Heating Degree Days 0 2  
Month to date heating degree days 0 2  
Since 1 July heating degree days 4 23  
Cooling Degree Days 0 1  
Month to date cooling degree days 0 1  
Year to date cooling degree days 883 708  
Growing Degree Days 14 (Base 50)    
Moisture  
Dew Point 53 °F    
Average Humidity 68    
Maximum Humidity 78    
Minimum Humidity 58    
Precipitation  
Precipitation 0.00 in 0.02 in 0.40 in (1859)
Month to date precipitation 0.00 0.02  
Year to date precipitation 4.16 7.82  
Since 1 July precipitation 0.70 0.79  
Snow  
Snow 0.00 in - - ()
Month to date snowfall 0.0  
Year to date snowfall 0.0  
Since 1 July snowfall 0.0  
Snow Depth 0.00 in    
Sea Level Pressure  
Sea Level Pressure 30.01 in    
Wind  
Wind Speed 4 mph (WNW)    
Max Wind Speed 12 mph    
Max Gust Speed 16 mph    
Visibility 10 miles    
Events      
T = Trace of Precipitation, MM = Missing Value Source: NWS Daily Summary

Daily Weather History Graph

Daily Weather History Graph

Search for Another Location

Airport:

Trip Planner

Search our weather history database for the weather conditions in past years. The results will help you decide how hot, cold, wet, or windy it might be!

Date:

Astronomy

Nov. 01, 2012 Rise Set
Actual Time 7:06 AM PDT 5:57 PM PDT
Civil Twilight 6:41 AM PDT 6:22 PM PDT
Nautical Twilight 6:12 AM PDT 6:51 PM PDT
Astronomical Twilight 5:43 AM PDT 7:20 PM PDT
Moon 8:04 PM PDT (11/1) 9:36 AM PDT (11/1)
Length of Visible Light 11h 41m
Length of Day
10h 50m
Waning Gibbous, 92% of the Moon is Illuminated
Nov 1
Waning Gibbous
Nov 6
Last Quarter
Nov 13
New
Nov 20
First Quarter
Nov 28
Full

Hourly Weather History & Observations

Time (PDT) Temp. Dew Point Humidity Pressure Visibility Wind Dir Wind Speed Gust Speed Precip Events Conditions
12:51 AM 63.0 °F 55.0 °F 75% 30.02 in 10.0 mi Calm Calm - N/A   Mostly Cloudy
1:51 AM 62.1 °F 54.0 °F 75% 30.02 in 10.0 mi Calm Calm - N/A   Mostly Cloudy
2:51 AM 62.1 °F 54.0 °F 75% 30.01 in 10.0 mi Variable 4.6 mph - N/A   Overcast
3:51 AM 62.1 °F 53.1 °F 72% 30.00 in 10.0 mi Calm Calm - N/A   Overcast
4:51 AM 62.1 °F 53.1 °F 72% 30.00 in 10.0 mi North 4.6 mph - N/A   Mostly Cloudy
5:51 AM 62.1 °F 53.1 °F 72% 30.01 in 10.0 mi Calm Calm - N/A   Overcast
6:51 AM 62.1 °F 53.1 °F 72% 30.02 in 10.0 mi East 4.6 mph - N/A   Overcast
7:51 AM 62.1 °F 52.0 °F 70% 30.03 in 10.0 mi Calm Calm - N/A   Overcast
8:51 AM 63.0 °F 52.0 °F 67% 30.03 in 9.0 mi Calm Calm - N/A   Mostly Cloudy
9:51 AM 63.0 °F 52.0 °F 67% 30.03 in 8.0 mi Calm Calm - N/A   Mostly Cloudy
10:51 AM 64.9 °F 52.0 °F 63% 30.04 in 10.0 mi Variable 4.6 mph - N/A   Mostly Cloudy
11:29 AM 64.4 °F 51.8 °F 64% 30.04 in 10.0 mi SW 9.2 mph - N/A   Mostly Cloudy
11:51 AM 66.0 °F 52.0 °F 60% 30.04 in 10.0 mi WNW 4.6 mph - N/A   Mostly Cloudy
12:51 PM 66.0 °F 52.0 °F 60% 30.01 in 10.0 mi West 6.9 mph - N/A   Scattered Clouds
1:51 PM 66.9 °F 52.0 °F 59% 29.98 in 10.0 mi West 5.8 mph - N/A   Scattered Clouds
2:51 PM 66.9 °F 53.1 °F 61% 29.97 in 10.0 mi West 10.4 mph - N/A   Scattered Clouds
3:51 PM 66.0 °F 53.1 °F 63% 29.98 in 10.0 mi West 10.4 mph - N/A   Mostly Cloudy
4:51 PM 64.0 °F 53.1 °F 67% 29.98 in 10.0 mi WNW 9.2 mph - N/A   Mostly Cloudy
5:51 PM 63.0 °F 53.1 °F 70% 29.99 in 10.0 mi WNW 5.8 mph - N/A   Mostly Cloudy
6:28 PM 62.6 °F 53.6 °F 72% 29.99 in 10.0 mi WNW 6.9 mph - N/A   Mostly Cloudy
6:51 PM 63.0 °F 54.0 °F 72% 29.99 in 10.0 mi West 5.8 mph - N/A   Mostly Cloudy
7:26 PM 62.6 °F 53.6 °F 72% 29.99 in 10.0 mi West 3.5 mph - N/A   Mostly Cloudy
7:51 PM 62.1 °F 54.0 °F 75% 30.00 in 10.0 mi WNW 4.6 mph - N/A   Mostly Cloudy
8:47 PM 62.6 °F 53.6 °F 72% 30.00 in 10.0 mi WNW 4.6 mph - N/A   Mostly Cloudy
8:51 PM 62.1 °F 54.0 °F 75% 30.00 in 10.0 mi WNW 4.6 mph - N/A   Mostly Cloudy
9:51 PM 63.0 °F 53.1 °F 70% 30.01 in 10.0 mi WNW 3.5 mph - N/A   Mostly Cloudy
10:51 PM 63.0 °F 53.1 °F 70% 30.02 in 10.0 mi NW 3.5 mph - N/A   Mostly Cloudy
11:51 PM 62.1 °F 53.1 °F 72% 30.01 in 10.0 mi SW 4.6 mph - N/A   Overcast